{"data":{"norad_id":68706,"epoch":"2026-05-25T00:36:31.928256Z","epoch_age_seconds":72732,"freshness":"FRESH","line1":"1 68706U 26081H   26145.02536954  .00072823  00000+0  13048-2 0  9995","line2":"2 68706  53.1592  40.7202 0000977 131.3757 228.7336 15.49318233  6410","mean_motion":15.49318233,"eccentricity":9.77e-5,"inclination_deg":53.1592,"raan_deg":40.7202,"arg_perigee_deg":131.3757,"mean_anomaly_deg":228.7336,"bstar":0.0013048,"rev_number":641,"period_min":92.94410724204,"perigee_km":418.05522585627,"apogee_km":419.38333157313,"semimajor_km":6796.8562787147,"source":"CELESTRAK","updated_at":"2026-05-25T13:38:21.998849Z"}}